Temp_Advection
nan nan nan nan nan nan nan nan nan nan nan nan nan nan nan nan nan nan nan nan nan nan nan nan nan nan nan nan nan nan nan nan
nan 1 1 1 0 0 0 0 0 0 0 0 0 0 0 0 0 0 0 0 0 0 0 0 0 0 0 -0 -0 0 1 nan
nan 0 0 0 0 0 0 0 0 0 0 0 0 0 0 0 0 0 0 0 0 0 0 0 0 0 0 0 -0 1 0 nan
nan -0 -0 -0 -0 -0 0 1 1 0 -0 0 1 1 0 0 0 0 0 0 0 0 0 0 1 1 0 -0 1 1 -0 nan
nan 0 -0 -0 -0 0 0 0 -0 -0 1 0 0 0 -0 -0 -0 0 0 0 0 0 0 1 0 -0 0 0 0 0 -0 nan
nan 0 -0 0 0 0 0 0 0 0 0 -0 0 -0 -0 -0 -0 0 0 -0 0 0 -0 -0 0 0 0 0 -0 -0 -0 nan
nan 0 0 0 1 1 0 1 1 0 0 0 -0 -0 0 0 0 0 -0 0 0 0 0 -0 -0 0 0 0 0 0 0 nan
nan 1 0 0 1 1 0 0 0 0 0 0 -0 0 1 1 0 -0 0 0 0 0 0 0 0 0 -0 0 0 0 0 nan
nan 0 0 0 0 0 0 0 0 0 0 0 -0 0 0 -0 -0 -0 -0 -0 0 0 0 0 1 -0 -0 0 -0 -0 -0 nan
nan 0 0 0 0 0 0 0 0 -0 -0 -0 -0 -0 -0 0 -0 -0 -0 -0 -0 0 0 0 1 0 0 -1 -1 -0 -0 nan
nan 0 0 0 -0 0 0 0 0 -0 0 0 -0 -0 -0 -0 -0 -0 -0 -0 -0 -0 1 1 -0 -0 -0 -0 0 -0 -1 nan
nan 0 0 0 -0 -0 -0 -0 -0 -0 -0 -0 -0 -0 -0 -0 -0 -0 -0 0 1 -0 -0 1 -0 -1 -1 -0 -0 -0 -0 nan
nan 0 0 0 -0 -0 -0 -0 -0 -0 -0 -1 -0 -0 -0 -1 -0 -1 -0 -0 0 0 1 0 -0 -0 -1 -1 -0 0 -0 nan
nan 0 0 0 -0 -0 -0 -0 -0 -1 -1 -1 -1 -1 -1 -1 -1 -1 -1 -0 0 0 -0 -0 -0 -0 -0 -1 -1 -0 0 nan
nan 0 0 0 0 -0 -0 -0 -0 -1 -1 -1 -1 -1 -1 -1 -1 -1 -0 0 0 0 -0 -0 -0 -0 -0 -1 -1 0 0 nan
nan 0 0 0 0 0 0 0 -0 0 0 -0 -0 -0 -1 -1 -1 -0 -0 -0 0 0 0 0 -0 -0 -0 -0 0 -0 -0 nan
nan 0 0 0 -0 -1 1 1 -0 -0 -0 -0 -0 -0 0 -1 -1 -0 -0 -0 0 0 0 0 0 0 -0 -0 -0 -0 -0 nan
nan 1 0 0 0 -0 -0 0 0 -0 -0 -0 -0 -0 -0 -0 -0 -0 -0 -0 -0 -0 -0 0 0 0 0 -0 -0 -0 -0 nan
nan 0 0 0 0 0 -0 -0 0 0 -0 -0 -0 -0 0 0 -0 0 -0 -0 -0 -0 -0 -0 0 0 0 -0 -0 -0 -0 nan
nan nan nan nan nan nan nan nan nan nan nan nan nan nan nan nan nan nan nan nan nan nan nan nan nan nan nan nan nan nan nan nan
Wind_Speed
20 20 20 19 18 18 17 16 15 15 14 14 13 13 13 13 13 13 12 11 10 9 8 8 8 8 7 7 9 9 8 8
17 18 17 17 17 17 17 17 17 17 17 16 16 15 15 16 16 16 16 16 16 15 13 12 12 12 11 11 11 13 14 11
15 11 10 13 16 21 19 19 19 18 18 18 17 17 18 18 17 18 18 19 19 19 19 17 16 16 16 16 16 16 13 13
18 19 19 17 14 17 18 19 14 14 16 18 18 17 14 15 17 19 19 20 21 21 21 21 21 18 16 20 22 17 16 16
16 16 14 15 17 18 19 19 21 21 20 15 13 11 14 14 13 14 15 18 17 20 21 21 19 17 18 20 17 18 17 17
16 16 17 17 15 16 19 20 20 20 19 19 18 16 15 14 13 13 15 14 13 14 16 23 23 24 24 23 21 20 19 19
17 16 17 17 17 16 16 16 16 17 16 16 16 19 17 16 16 15 16 17 16 15 17 19 19 23 26 26 27 28 28 28
10 11 9 10 11 11 10 12 15 12 10 14 15 15 15 13 14 14 16 17 18 18 18 20 21 23 24 24 25 25 27 27
6 6 7 7 7 7 7 8 6 6 6 6 7 9 10 10 13 16 19 20 21 21 22 22 22 19 26 30 31 31 32 33
7 5 5 6 7 7 7 5 4 3 4 6 7 8 11 13 15 18 21 22 23 24 23 23 20 17 17 19 27 32 33 33
7 7 6 6 6 6 5 4 1 3 5 6 10 12 14 16 20 23 24 25 26 25 24 21 18 18 18 18 19 20 26 32
8 7 6 6 5 3 3 3 6 6 10 14 16 18 19 20 22 24 25 24 21 20 22 20 18 17 18 20 20 21 21 21
10 9 8 6 4 2 3 6 8 10 12 14 16 17 19 21 22 24 26 25 26 25 23 19 15 13 16 18 17 19 19 19
13 12 11 9 5 3 3 6 10 14 16 17 18 19 20 21 22 22 23 22 20 17 15 15 13 10 11 14 13 9 11 10
15 15 13 10 7 4 8 9 10 10 15 18 22 20 19 19 20 20 19 19 16 14 13 12 11 10 8 7 7 7 8 10
20 16 12 8 4 7 15 12 11 15 21 25 25 25 24 24 22 19 17 14 14 14 12 9 9 12 9 8 11 12 10 11
22 21 16 10 13 16 23 17 21 21 23 24 26 27 26 22 20 18 15 13 14 14 14 13 12 12 10 10 10 11 13 15
26 22 15 9 6 7 9 10 12 16 18 20 21 22 22 20 19 18 15 12 13 13 14 14 15 14 14 14 12 12 12 14
27 23 15 8 5 4 7 12 15 14 21 22 22 21 20 19 19 17 16 16 16 16 15 15 15 15 15 14 14 14 13 15
26 21 17 12 8 7 16 24 16 16 22 23 23 23 23 22 20 19 19 20 21 22 21 20 19 20 19 16 15 15 16 16
Wind_Direction
194 200 203 205 209 211 214 215 219 221 222 225 225 226 227 228 229 230 230 232 236 236 243 256 263 264 258 258 260 253 233 248
199 206 210 217 224 224 226 228 229 232 233 234 234 237 238 238 238 238 237 238 240 241 240 243 255 261 262 260 260 265 261 247
194 197 208 212 217 220 224 228 233 237 240 243 245 243 244 247 248 251 247 245 245 246 247 244 244 252 257 258 257 256 246 250
202 201 206 212 217 222 225 230 234 235 240 245 243 245 247 241 243 243 246 246 246 248 249 251 251 246 262 262 254 250 247 245
215 214 218 225 232 233 226 223 222 227 226 224 236 236 242 244 252 263 262 257 256 257 255 257 253 248 247 244 246 249 249 251
221 224 224 230 238 233 238 236 239 240 239 239 233 230 232 234 248 254 257 265 268 274 269 260 250 247 247 245 252 246 248 249
220 230 234 236 237 235 231 236 241 243 246 241 234 244 241 243 248 251 259 260 260 258 260 260 261 262 263 262 264 264 260 248
209 217 220 219 222 228 230 236 240 237 237 251 242 244 246 243 246 255 263 264 267 269 261 262 260 254 256 257 260 259 261 261
195 190 185 188 198 202 199 208 219 236 253 254 261 266 257 256 259 263 267 271 271 271 271 271 271 271 264 260 259 261 261 260
186 175 161 160 155 160 165 175 199 224 253 276 280 280 282 287 287 285 284 285 284 281 279 277 274 270 270 271 264 260 263 263
166 156 147 141 133 131 132 134 185 283 295 307 312 310 307 303 298 295 294 291 288 285 283 282 278 276 272 270 266 266 262 261
166 157 151 136 114 89 61 0 330 351 331 326 327 324 322 319 316 311 307 301 293 285 283 279 279 278 275 271 268 265 262 260
177 178 169 146 111 49 2 354 345 350 342 336 333 329 327 324 322 317 311 303 296 293 289 288 283 280 287 285 275 272 267 260
194 185 177 162 143 112 36 7 346 343 346 340 336 330 330 329 327 323 315 307 297 288 283 276 280 279 282 285 285 276 257 239
195 189 185 180 167 87 25 7 360 351 344 341 336 333 329 330 334 329 319 309 299 292 285 286 285 279 274 269 291 263 301 274
201 198 194 194 202 306 310 336 345 340 340 339 338 335 334 336 336 336 337 321 305 296 282 272 282 286 280 264 251 261 270 287
207 207 211 245 278 280 279 307 309 318 328 328 317 321 320 318 325 328 327 321 307 297 290 282 269 270 272 271 269 269 268 265
218 218 235 263 282 287 293 305 323 331 316 311 314 314 310 310 315 316 311 303 292 287 281 278 272 269 272 271 268 266 264 271
221 220 241 232 217 251 314 324 318 314 313 315 317 314 307 304 302 301 296 290 288 283 277 273 273 268 264 264 265 265 267 264
222 226 226 233 229 316 329 322 310 300 309 312 314 313 308 305 299 294 291 289 288 280 275 272 268 266 266 265 267 267 269 273
Height
1553 1554 1555 1555 1556 1557 1558 1558 1560 1561 1561 1561 1562 1562 1563 1563 1563 1564 1565 1566 1566 1567 1567 1567 1567 1568 1569 1570 1570 1571 1572 1577
1554 1555 1556 1558 1559 1559 1559 1559 1559 1560 1560 1560 1560 1561 1561 1561 1561 1561 1561 1562 1563 1564 1564 1565 1565 1566 1566 1567 1568 1569 1569 1572
1551 1554 1557 1557 1556 1556 1557 1558 1558 1559 1559 1559 1559 1559 1558 1559 1559 1559 1559 1559 1560 1561 1561 1562 1562 1562 1563 1563 1564 1565 1568 1569
1547 1549 1550 1553 1555 1555 1556 1557 1558 1557 1557 1556 1557 1557 1558 1558 1556 1556 1556 1556 1556 1557 1558 1558 1558 1560 1561 1559 1560 1561 1563 1565
1546 1547 1549 1550 1551 1553 1554 1553 1552 1551 1552 1553 1555 1556 1556 1555 1554 1555 1555 1554 1553 1553 1554 1555 1556 1557 1559 1558 1559 1559 1559 1559
1543 1545 1545 1546 1548 1549 1550 1550 1551 1550 1550 1551 1551 1552 1553 1552 1552 1552 1553 1551 1551 1551 1551 1551 1551 1551 1551 1552 1552 1553 1554 1555
1539 1541 1543 1543 1543 1545 1546 1546 1548 1549 1549 1549 1549 1549 1549 1549 1549 1549 1548 1547 1546 1546 1546 1546 1546 1546 1546 1546 1546 1545 1546 1548
1538 1538 1540 1541 1541 1542 1543 1544 1544 1546 1544 1545 1544 1545 1545 1545 1545 1544 1545 1544 1542 1542 1542 1542 1541 1541 1540 1540 1540 1539 1540 1539
1539 1540 1539 1540 1540 1541 1541 1542 1543 1544 1544 1544 1543 1544 1545 1543 1542 1541 1541 1539 1538 1537 1538 1537 1536 1536 1534 1534 1534 1533 1533 1533
1538 1539 1540 1541 1541 1541 1542 1543 1543 1542 1542 1542 1542 1541 1541 1541 1540 1538 1537 1536 1535 1533 1532 1531 1530 1530 1529 1528 1527 1526 1526 1526
1538 1538 1540 1541 1542 1541 1541 1542 1543 1542 1542 1540 1540 1539 1538 1537 1535 1534 1533 1531 1530 1529 1527 1526 1525 1524 1524 1523 1521 1520 1520 1519
1538 1540 1541 1541 1542 1542 1542 1543 1543 1540 1540 1539 1537 1536 1535 1533 1530 1528 1526 1525 1523 1522 1520 1520 1519 1519 1517 1516 1515 1514 1514 1513
1536 1537 1539 1540 1541 1542 1542 1541 1543 1539 1538 1536 1535 1533 1531 1529 1527 1524 1522 1520 1517 1516 1514 1514 1515 1515 1513 1511 1509 1507 1505 1506
1536 1536 1536 1536 1537 1538 1539 1539 1541 1540 1537 1535 1533 1530 1527 1526 1522 1519 1517 1516 1514 1512 1511 1510 1511 1511 1509 1508 1505 1504 1502 1502
1536 1536 1535 1534 1533 1534 1536 1538 1539 1539 1538 1534 1531 1528 1525 1523 1519 1517 1514 1512 1510 1507 1506 1505 1506 1507 1506 1506 1504 1501 1500 1499
1533 1534 1534 1533 1531 1531 1532 1535 1536 1535 1534 1532 1528 1523 1520 1516 1515 1515 1510 1509 1507 1506 1504 1502 1503 1504 1504 1503 1502 1502 1501 1497
1529 1529 1531 1530 1529 1528 1528 1531 1532 1530 1529 1527 1528 1524 1519 1517 1514 1512 1510 1506 1507 1505 1503 1500 1501 1500 1501 1500 1498 1497 1497 1496
1527 1528 1529 1529 1528 1527 1526 1527 1528 1528 1528 1527 1523 1520 1517 1513 1511 1509 1508 1506 1505 1503 1502 1499 1499 1496 1496 1493 1493 1493 1492 1492
1524 1527 1528 1527 1526 1525 1525 1524 1524 1525 1524 1522 1519 1517 1513 1509 1506 1505 1505 1504 1501 1500 1499 1497 1495 1493 1493 1490 1488 1487 1487 1486
1521 1524 1525 1525 1525 1525 1524 1522 1522 1521 1521 1519 1516 1513 1509 1505 1502 1500 1500 1499 1496 1496 1494 1492 1489 1488 1486 1484 1483 1482 1480 1477